Location: Ottawa
(45.4170°N, 75.7000°W)
Time: 01:36:29
(UTC-04:00)

ISS - Visible Passes

Search period start: 27 May 2022 00:00
Search period end: 06 June 2022 00:00
Orbit: 414 x 421 km, 51.6° (Epoch: 27 May)

Date Brightness Start Highest point End Pass type
(mag) Time Alt. Az. Time Alt. Az. Time Alt. Az.
27 May -3.7 22:01:02 10° WNW 22:04:24 79° NNE 22:06:38 19° ESE visible
27 May -1.3 23:38:33 10° W 23:39:32 14° WSW 23:39:32 14° WSW visible
28 May -3.2 21:12:55 10° NW 21:16:14 54° NNE 21:19:32 10° ESE visible
28 May -2.5 22:49:57 10° W 22:52:50 27° SW 22:53:07 27° SSW visible
29 May -3.1 22:01:35 10° WNW 22:04:48 43° SW 22:06:43 20° SSE visible
30 May -3.7 21:13:20 10° WNW 21:16:41 71° SSW 21:20:01 10° SE visible
30 May -1.2 22:51:58 10° WSW 22:52:53 11° SW 22:53:15 11° SW visible
31 May -1.7 22:02:34 10° W 22:04:55 18° SW 22:06:55 11° S visible
